Regional Weather Roundup
Issued by NWS

Home | Current Version | Previous Version | Text Only | Print | Product List | Glossary On
Versions: 1 2 3 4 5 6 7 8 9 10 11 12 13 14 15 16 17 18 19 20 21 22 23 24 25 26 27 28 29 30 31 32 33 34 35 36 37 38 39 40 41 42 43 44 45 46 47 48 49 50
000
ASUS43 KLMK 202110
RWRKY
KENTUCKY REGIONAL WEATHER ROUNDUP
NATIONAL WEATHER SERVICE LOUISVILLE KY
500 PM EDT FRI OCT 20 2017

NOTE "FAIR" INDICATES FEW OR NO CLOUDS BELOW 12,000 FEET
WITH NO SIGNIFICANT WEATHER AND/OR OBSTRUCTIONS TO VISIBILITY.

KYZ001>023-026-027-061>063-070>075-202200-
WESTERN AND SOUTH CENTRAL KENTUCKY

CITY           SKY/WX    TMP DP  RH WIND       PRES   REMARKS
PADUCAH        MOSUNNY   76  48  37 S8        30.13F
HENDERSON      SUNNY     78  50  37 SE8       30.16S
OWENSBORO      SUNNY     77  51  40 SE10      30.17S
HOPKINSVILLE   SUNNY     75  44  33 SE5       30.16F
BOWLING GREEN  SUNNY     78  49  35 SE6       30.18F
GLASGOW        SUNNY     77  47  34 E5        30.19S
$$

KYZ024-025-028>034-038-045-046-053-202200-
NORTH CENTRAL KENTUCKY

CITY           SKY/WX    TMP DP  RH WIND       PRES   REMARKS
LOUISVILLE/SDF MOSUNNY   78  51  38 S8        30.18F
LOUISVILLE/LOU SUNNY     77  49  37 SE7       30.19F
FORT KNOX      SUNNY     76  48  37 SE6       30.17F
$$

KYZ035>037-039>044-047>052-055>060-089>105-202200-
NORTHEAST KENTUCKY

CITY           SKY/WX    TMP DP  RH WIND       PRES   REMARKS
LEXINGTON      SUNNY     76  52  43 CALM      30.22F
COVINGTON      PTSUNNY   75  55  49 S5        30.20F
FRANKFORT      SUNNY     76  50  40 E5        30.20F
$$

KYZ054-064>069-076>088-106>120-202200-
SOUTHEAST KENTUCKY

CITY           SKY/WX    TMP DP  RH WIND       PRES   REMARKS
JACKSON        SUNNY     73  50  44 CALM      30.23F
LONDON         SUNNY     75  47  36 CALM      30.22F
SOMERSET       SUNNY     73  46  38 CALM      30.22F
MIDDLESBORO    SUNNY     76  46  34 CALM      30.22F
MONTICELLO     CLEAR     76  52  43 N14       30.22F
$$





USA.gov is the U.S. government's official web portal to all federal, state and local government web resources and services.